Terminal Aerodrome Forecast
Issued by NWS

Home | Current Version | Previous Version | Text Only | Print | Product List | Glossary On
Versions: 1 2 3 4 5 6 7 8 9 10 11 12 13 14 15 16 17 18 19 20 21 22 23 24
000
FTUS45 KSLC 291733
TAFPVU
TAF
KPVU 291733Z 2918/3018 14006KT P6SM FEW100 SCT200
     FM292000 15011KT P6SM SCT090 SCT120
     FM300300 15007KT P6SM SCT080 SCT120
     FM301600 22009KT P6SM SCT080 BKN120
      AMD LTD TO CLD VIS AND WIND=

USA.gov is the U.S. government's official web portal to all federal, state and local government web resources and services.